Weather History for Haleyville, AL

Change the Weather History Date:

Thursday, March 7, 2013

  Actual Average (KJFX) Record (KJFX)
Temperature  
Mean Temperature 38 °F -  
Max Temperature 50 °F 61 °F 82 °F (1961)
Min Temperature 26 °F 32 °F 18 °F (1966)
Degree Days  
Heating Degree Days 27    
Moisture  
Dew Point 27 °F    
Average Humidity 74    
Maximum Humidity 89    
Minimum Humidity 46    
Precipitation  
Precipitation 0.00 in - - ()
Sea Level Pressure  
Sea Level Pressure 30.34 in    
Wind  
Wind Speed 2 mph (North)    
Max Wind Speed 9 mph    
Max Gust Speed -    
Visibility 10 miles    
Events      
Averages and records for this station are not official NWS values.
T = Trace of Precipitation, MM = Missing Value Source: NWS Daily Summary

Daily Weather History Graph

Daily Weather History Graph

Search for Another Location

Airport:

Trip Planner

Search our weather history database for the weather conditions in past years. The results will help you decide how hot, cold, wet, or windy it might be!

Date:

Astronomy

Mar. 07, 2013 Rise Set
Actual Time 6:11 AM CST 5:51 PM CST
Civil Twilight 5:46 AM CST 6:16 PM CST
Nautical Twilight 5:17 AM CST 6:46 PM CST
Astronomical Twilight 4:48 AM CST 7:15 PM CST
Moon 3:01 AM CST (3/7) 1:48 PM CST (3/7)
Length of Visible Light 12h 30m
Length of Day
11h 40m
Waning Crescent, 20% of the Moon is Illuminated
Mar 7
Waning Crescent
Mar 11
New
Mar 19
First Quarter
Mar 27
Full
Apr 2
Last Quarter

Hourly Weather History & Observations

Time (CST) Temp. Windchill Dew Point Humidity Pressure Visibility Wind Dir Wind Speed Gust Speed Precip Events Conditions
12:56 AM 26.1 °F - 23.0 °F 88% 30.32 in 10.0 mi Calm Calm - N/A   Clear
1:56 AM 26.1 °F - 23.0 °F 88% 30.32 in 10.0 mi Calm Calm - N/A   Clear
2:56 AM 26.1 °F - 23.0 °F 88% 30.31 in 10.0 mi Calm Calm - N/A   Clear
3:56 AM 27.1 °F - 23.0 °F 84% 30.32 in 10.0 mi Calm Calm - N/A   Clear
4:56 AM 27.1 °F - 24.1 °F 88% 30.34 in 10.0 mi Calm Calm - N/A   Clear
5:56 AM 27.1 °F - 24.1 °F 88% 30.35 in 10.0 mi Calm Calm - N/A   Clear
6:56 AM 28.0 °F - 24.1 °F 85% 30.37 in 10.0 mi Calm Calm - N/A   Clear
7:56 AM 30.0 °F 22.4 °F 25.2 °F 82% 30.38 in 10.0 mi NNE 8.1 mph - N/A   Clear
8:56 AM 32.9 °F 28.5 °F 26.1 °F 76% 30.39 in 10.0 mi Variable 4.6 mph - N/A   Clear
9:56 AM 37.9 °F 31.5 °F 28.0 °F 68% 30.38 in 10.0 mi NE 9.2 mph - N/A   Clear
10:56 AM 41.0 °F 35.8 °F 28.0 °F 60% 30.38 in 10.0 mi NNW 8.1 mph - N/A   Clear
11:56 AM 45.0 °F 42.6 °F 29.1 °F 54% 30.36 in 10.0 mi Variable 4.6 mph - N/A   Clear
12:56 PM 46.9 °F - 29.1 °F 50% 30.34 in 10.0 mi NNW 6.9 mph - N/A   Clear
2:56 PM 50.0 °F - 30.0 °F 46% 30.33 in 10.0 mi North 9.2 mph - N/A   Clear
3:56 PM 48.9 °F - 29.1 °F 46% 30.31 in 10.0 mi NW 5.8 mph - N/A   Clear
4:56 PM 48.9 °F - 29.1 °F 46% 30.32 in 10.0 mi North 5.8 mph - N/A   Clear
5:56 PM 43.9 °F - 30.0 °F 58% 30.34 in 10.0 mi Calm Calm - N/A   Clear
6:56 PM 37.9 °F - 30.0 °F 73% 30.34 in 10.0 mi Calm Calm - N/A   Clear
7:56 PM 34.9 °F - 30.0 °F 82% 30.33 in 10.0 mi Calm Calm - N/A   Clear
8:56 PM 34.9 °F - 30.0 °F 82% 30.33 in 10.0 mi Calm Calm - N/A   Clear
9:56 PM 32.0 °F - 29.1 °F 89% 30.33 in 10.0 mi Calm Calm - N/A   Clear
10:56 PM 32.0 °F - 28.0 °F 85% 30.33 in 10.0 mi Calm Calm - N/A   Clear
11:56 PM 32.0 °F 28.7 °F 28.0 °F 85% 30.33 in 9.0 mi NNE 3.5 mph - N/A   Clear